TimePST,TemperatureF,Dew PointF,Humidity,Sea Level PressureIn,VisibilityMPH,Wind Direction,Wind SpeedMPH,Gust SpeedMPH,PrecipitationIn,Events,Conditions,WindDirDegrees,DateUTC
12:53 AM,57.0,33.1,40,29.95,10.0,NNW,12.7,-,N/A,,Clear,330,2013-11-03 07:53:00
1:53 AM,57.9,32.0,37,29.96,10.0,NNW,16.1,27.6,N/A,,Clear,330,2013-11-03 08:53:00
1:53 AM,57.0,30.0,36,29.96,10.0,NNW,21.9,28.8,N/A,,Clear,330,2013-11-03 09:53:00
2:53 AM,55.0,30.0,38,29.97,10.0,NW,15.0,24.2,N/A,,Clear,320,2013-11-03 10:53:00
3:53 AM,54.0,28.9,38,29.98,10.0,NNW,18.4,31.1,N/A,,Clear,330,2013-11-03 11:53:00
4:53 AM,54.0,27.0,35,29.98,10.0,NNW,17.3,26.5,N/A,,Clear,330,2013-11-03 12:53:00
5:53 AM,52.0,26.1,37,29.99,10.0,NNW,17.3,27.6,N/A,,Clear,330,2013-11-03 13:53:00
6:53 AM,52.0,26.1,37,29.99,10.0,NNW,11.5,23.0,N/A,,Clear,340,2013-11-03 14:53:00
7:53 AM,54.0,27.0,35,30.01,10.0,NNW,12.7,-,N/A,,Clear,330,2013-11-03 15:53:00
8:53 AM,57.0,27.0,32,30.02,10.0,NNW,18.4,27.6,N/A,,Clear,340,2013-11-03 16:53:00
9:53 AM,59.0,27.0,29,30.03,9.0,NNW,12.7,21.9,N/A,,Mostly Cloudy,340,2013-11-03 17:53:00
10:27 AM,60.8,24.8,25,30.03,10.0,NNW,24.2,32.2,N/A,,Partly Cloudy,330,2013-11-03 18:27:00
10:53 AM,61.0,25.0,25,30.03,10.0,North,23.0,29.9,N/A,,Clear,350,2013-11-03 18:53:00
11:53 AM,62.1,25.0,24,30.00,10.0,NNW,20.7,28.8,N/A,,Clear,330,2013-11-03 19:53:00
12:53 PM,64.9,26.1,23,29.98,10.0,NNW,21.9,26.5,N/A,,Clear,330,2013-11-03 20:53:00
1:53 PM,64.0,24.1,22,29.96,10.0,NNW,19.6,27.6,N/A,,Clear,330,2013-11-03 21:53:00
2:53 PM,64.9,25.0,22,29.94,10.0,NW,15.0,25.3,N/A,,Clear,320,2013-11-03 22:53:00
3:53 PM,64.0,25.0,23,29.93,10.0,NW,19.6,25.3,N/A,,Clear,320,2013-11-03 23:53:00
4:53 PM,61.0,25.0,25,29.93,10.0,NNW,18.4,26.5,N/A,,Clear,340,2013-11-04 00:53:00
5:53 PM,59.0,26.1,28,29.91,10.0,NNW,12.7,18.4,N/A,,Clear,330,2013-11-04 01:53:00
6:53 PM,57.9,27.0,31,29.92,10.0,NW,8.1,-,N/A,,Clear,310,2013-11-04 02:53:00
7:53 PM,57.9,28.0,32,29.92,10.0,NW,6.9,-,N/A,,Clear,310,2013-11-04 03:53:00
8:53 PM,55.0,28.9,37,29.92,10.0,WNW,6.9,-,N/A,,Clear,300,2013-11-04 04:53:00
9:53 PM,54.0,28.9,38,29.91,10.0,NW,11.5,-,N/A,,Clear,320,2013-11-04 05:53:00
10:53 PM,54.0,28.0,37,29.91,10.0,NW,11.5,-,N/A,,Clear,320,2013-11-04 06:53:00